[[{"header":{"parameterUnit":"m.s-1","parameterCategory":1,"la1":30.2992,"la2":30.254,"lo1":-89.0895,"lo2":-89.0443,"dy":0.0025,"dx":0.0025,"nx":19,"ny":19,"refTime":"2026-04-11T21:00:00:Z","depth":0,"parameterNumber":2,"parameterNumberName":"U-component_of_WINDS"},"data":[0,0,0,-1.9337,-1.9339,-1.9474,-1.9475,-1.9649,-1.965,0,0,0,0,0,0,0,0,0,0,0,-1.9292,-1.9292,-1.9336,-1.934,-1.9474,-1.9475,-1.9648,-1.965,0,0,0,0,0,0,0,0,0,0,0,-1.9291,-1.9292,-1.9293,-1.934,-1.9474,-1.9475,-1.9648,-1.9547,0,0,0,0,0,0,0,0,0,0,-1.9417,-1.9369,-1.9292,-1.9293,-1.9341,-1.9474,-1.9475,-1.9543,-1.9554,-1.9587,0,-1.9609,0,-1.9632,-1.9661,-1.9662,0,0,0,-1.9345,-1.9359,-1.94,-1.9294,-1.9342,-1.9473,-1.9415,-1.9549,-1.9561,-1.9601,-1.9612,-1.9618,-1.9635,-1.9663,-1.9663,-1.9823,-1.9823,0,0,-1.9337,-1.9314,-1.9391,-1.9407,-1.938,-1.941,-1.9419,-1.9556,-1.9568,-1.9612,-1.9622,-1.9638,-1.9664,-1.9665,-1.9822,-1.9823,0,0,0,-1.9312,-1.9309,-1.9346,-1.94,-1.9424,-1.9414,-1.9424,-1.9562,-1.9576,-1.9624,-1.964,-1.9665,-1.9667,-1.9822,-1.9822,-1.9821,0,0,0,-1.9308,-1.9294,-1.9342,-1.933,-1.9421,-1.9493,-1.9426,-1.9566,-1.9583,-1.9639,-1.9665,-1.9668,-1.9821,-1.9822,-1.9819,-1.9824,0,0,0,-1.9285,-1.9292,-1.9309,-1.9328,-1.9385,-1.9492,-1.9513,-1.957,-1.9592,-1.9662,-1.9669,-1.9821,-1.9822,-1.9818,-1.9822,-1.9858,0,0,0,-1.9254,-1.9308,-1.9308,-1.9375,-1.9383,-1.9488,-1.9513,-1.9594,-1.9654,-1.9665,-1.9821,-1.9822,-1.9818,-1.9821,-1.9857,-1.9882,-1.989,0,0,-1.9309,-1.9314,-1.9355,-1.9359,-1.9457,-1.947,-1.9571,-1.965,-1.9682,-1.9776,-1.978,-1.982,-1.9822,-1.9858,-1.9949,-1.9955,0,0,0,-1.9365,-1.9394,-1.9425,-1.9478,-1.9538,-1.9591,-1.9657,-1.9688,-1.9767,-1.9723,-1.9844,-1.9846,-1.9868,-1.9882,-1.9887,-1.9908,-1.9828,-1.9827,-1.9827,-1.9408,-1.9442,-1.9513,-1.9564,-1.9617,-1.9684,-1.9732,-1.9786,-1.9807,-1.9836,-1.9862,-1.9913,-1.9928,-1.9932,-1.9953,-1.9881,-1.9881,-1.9881,-1.9881,-1.9491,-1.9537,-1.9564,-1.9641,-1.9679,-1.9748,-1.9819,-1.9832,-1.9905,-1.9895,-1.9916,-1.9901,-1.9938,-1.9958,-1.9881,-1.9881,-1.9881,-1.9881,-1.9881,-1.9522,-1.9549,-1.9583,-1.9665,-1.9726,-1.9779,-1.9846,-1.9881,-1.9914,-1.9935,-1.9968,-1.9968,-1.9972,-1.9949,-1.9949,-1.9949,-1.9949,-1.9949,-1.9949,-1.9539,-1.9577,-1.9626,-1.9695,-1.9734,-1.9792,-1.9864,-1.9907,-1.9963,-1.9983,-1.9984,-2.0003,-1.9934,-1.9915,-1.9952,-1.9952,-1.9951,-1.9951,-1.9951,-1.9607,-1.9597,-1.9672,-1.9712,-1.9797,-1.9857,-1.99,-1.9984,-2.0025,-2.0059,-2.0076,-2.0019,-2.0027,-2.0023,-2.0008,-2.0067,-2.0067,-2.0067,-2.0067,-1.9631,-1.9638,-1.9724,-1.9785,-1.985,-1.9897,-1.9988,-2.0047,-2.0108,-2.0137,-2.0135,-2.0118,-2.0112,-2.0124,-2.0118,-2.0104,-2.0186,-2.0186,-2.0186,-1.9675,-1.969,-1.9756,-1.981,-1.988,-1.9942,-2.0029,-2.0104,-2.0172,-2.0192,-2.0161,-2.0155,-2.0129,-2.0118,-2.0134,-2.0123,-2.0098,0,0]},{"header":{"parameterUnit":"m.s-1","parameterCategory":1,"la1":30.2992,"la2":30.254,"lo1":-89.0895,"lo2":-89.0443,"dy":0.0025,"dx":0.0025,"nx":19,"ny":19,"refTime":"2026-04-11T21:00:00:Z","depth":0,"parameterNumber":3,"parameterNumberName":"V-component_of_WINDS"},"data":[0,0,0,3.7683,3.7682,3.7639,3.7639,3.7565,3.7565,0,0,0,0,0,0,0,0,0,0,0,3.7689,3.7688,3.7683,3.7682,3.7639,3.7639,3.7565,3.7565,0,0,0,0,0,0,0,0,0,0,0,3.7689,3.7688,3.7687,3.7682,3.7639,3.7639,3.7566,3.7604,0,0,0,0,0,0,0,0,0,0,3.7649,3.7647,3.7688,3.7687,3.7682,3.7639,3.7639,3.7606,3.7601,3.7578,0,3.7559,0,3.7561,3.7559,3.7558,0,0,0,3.7687,3.7651,3.7646,3.7687,3.7681,3.7639,3.766,3.7604,3.7599,3.7572,3.7558,3.7555,3.7559,3.7558,3.7558,3.7416,3.7415,0,0,3.7689,3.7676,3.765,3.7643,3.7652,3.7661,3.7658,3.7601,3.7583,3.7557,3.7554,3.7558,3.7558,3.7557,3.7417,3.7416,0,0,0,3.7693,3.7677,3.7675,3.7645,3.7639,3.766,3.7657,3.7585,3.7586,3.7553,3.7557,3.7557,3.7556,3.7418,3.7417,3.7361,0,0,0,3.7695,3.7679,3.7675,3.7666,3.764,3.7612,3.7642,3.759,3.7584,3.7558,3.7557,3.7555,3.7419,3.7417,3.7365,3.7336,0,0,0,3.7694,3.7679,3.7671,3.7666,3.7647,3.7614,3.7611,3.7589,3.7586,3.7558,3.7555,3.742,3.7418,3.7368,3.7341,3.7294,0,0,0,3.7688,3.762,3.767,3.7595,3.7648,3.7581,3.7612,3.7562,3.7531,3.7557,3.7419,3.7417,3.7369,3.7345,3.7298,3.7252,3.7232,0,0,3.7595,3.7608,3.7566,3.7609,3.753,3.7588,3.75,3.7484,3.7492,3.744,3.7437,3.7363,3.7342,3.7295,3.7128,3.7112,0,0,0,3.7531,3.75,3.7482,3.7455,3.7443,3.743,3.7429,3.7423,3.738,3.7464,3.7335,3.7322,3.7295,3.7274,3.726,3.7238,3.7407,3.7407,3.7407,3.7377,3.7395,3.7325,3.7337,3.7309,3.731,3.7288,3.728,3.7303,3.7272,3.7256,3.7153,3.7127,3.7117,3.7094,3.7234,3.7234,3.7234,3.7234,3.7241,3.7199,3.7235,3.7179,3.7196,3.7149,3.7146,3.7164,3.7121,3.7166,3.7143,3.719,3.71,3.7079,3.723,3.723,3.7231,3.7231,3.7232,3.7141,3.7124,3.7121,3.7084,3.7052,3.7065,3.7023,3.704,3.7054,3.7032,3.7017,3.7017,3.7019,3.7024,3.7024,3.7023,3.7023,3.7023,3.7022,3.7039,3.7037,3.7001,3.6984,3.6969,3.695,3.6951,3.6935,3.6922,3.6937,3.6937,3.6961,3.7089,3.712,3.7017,3.7018,3.7019,3.7019,3.7019,3.6892,3.6929,3.6873,3.6858,3.6839,3.6806,3.6829,3.6796,3.6785,3.6763,3.6794,3.6886,3.69,3.691,3.6936,3.6792,3.6792,3.6792,3.6792,3.6807,3.6817,3.6764,3.6739,3.6716,3.6732,3.6665,3.6665,3.6669,3.6663,3.6686,3.6722,3.6733,3.674,3.6755,3.6779,3.6598,3.6598,3.6597,3.6717,3.6726,3.6668,3.6676,3.6663,3.665,3.6588,3.6555,3.6567,3.659,3.6658,3.6666,3.6724,3.6743,3.6765,3.6788,3.6832,0,0]}]]